Skip Page Navigation
NASA JPL Caltech
NASA Logo - Jet Propulsion Laboratory + View the NASA Portal
+ Center for Near-Earth Object Studies
JPL Home Earth Solar System Stars & Galaxies Technology
JPL Solar System Dynamics
BODIES ORBITS EPHEMERIDES TOOLS PHYSICAL DATA DISCOVERY FAQ SITE MAP
JPL Small-Body Database Browser
Search: [ help ]  
47895 (2000 GZ25)
Classification: Main-belt Asteroid          SPK-ID: 2047895
Ephemeris | Orbit Diagram | Orbital Elements | Mission Design | Physical Parameters | Discovery Circumstances | Close-Approach Data ]

[ show orbit diagram ]
Orbital Elements at Epoch 2459000.5 (2020-May-31.0) TDB
Reference: JPL 22 (heliocentric ecliptic J2000)
 Element Value Uncertainty (1-sigma)   Units 
e .2767579621510443 3.943e-08  
a 2.572340051441579 9.9961e-09 au
q 1.860424460845095 1.0389e-07 au
i 3.03370216462449 3.497e-06 deg
node 18.36307741454476 0.00010584 deg
peri 61.14026537816573 0.00010624 deg
M 43.09924685747657 8.1117e-06 deg
tp 2458820.091009300506
(2019-Dec-02.59100930)
3.4022e-05 TDB
period 1506.92277446494
4.13
8.7838e-06
2.405e-08
d
yr
n .238897444580612 1.3925e-09 deg/d
Q 3.284255642038063 1.2763e-08 au
  Orbit Determination Parameters
   # obs. used (total)      896  
   data-arc span      17974 days (49.21 yr)  
   first obs. used      1971-03-25  
   last obs. used      2020-06-09  
   planetary ephem.      DE431  
   SB-pert. ephem.      SB431-N16  
   condition code      0  
   norm. resid. RMS      .53077  
   source      ORB  
   producer      Otto Matic  
   solution date      2020-Nov-12 23:39:56  

Additional Information
 Earth MOID = .878282 au 
 Jupiter MOID = 1.99824 au 
 T_jup = 3.372 
[ show covariance matrix ]

Ephemeris | Orbit Diagram | Orbital Elements | Mission Design | Physical Parameters | Discovery Circumstances | Close-Approach Data ]

Physical Parameter Table
Parameter Symbol Value Units Sigma Reference Notes
absolute magnitude H 15.7   n/a MPO412503  

47895 (2000 GZ25)          Discovered 2000-Apr-05 by LINEAR at Socorro
Reference: 20020921/Numbers.arcLast Updated: 2004-04-19

[ show close-approach data ]
Alternate Designations
 2000 GZ25 = 1998 SZ83 = 2044 T-1 
Ephemeris | Orbit Diagram | Orbital Elements | Mission Design | Physical Parameters | Discovery Circumstances | Close-Approach Data ]
ABOUT SSD CREDITS/AWARDS PRIVACY/COPYRIGHT GLOSSARY LINKS
FirstGov 2020-Dec-02 14:13 UT
(server date/time)  
NASA Home Page
Site Manager:   Ryan S. Park
Webmaster  Alan B. Chamberlin